[[{"header":{"parameterUnit":"m.s-1","parameterCategory":2,"la1":30.2991,"la2":30.254,"lo1":-89.0895,"lo2":-89.0444,"dy":0.0017,"dx":0.0017,"nx":28,"ny":28,"refTime":"2025-06-11T03:00:00:Z","depth":"0","parameterNumber":2,"parameterNumberName":"U-component_of_CURRENTS"},"data":[0,0,0,0,0,0,0,0,0,0,0,0,0,0,0,0,0,0,0,0,0,0,0,0,0,0,0,0,0,0,0,0,0,0,0,0,0,0,0,0,0,0,0,0,0,0,0,0,0,0,0,0,0,0,0,0,0,0,0.2299,0.2298,0,0.2282,0.2282,0.2281,0.225,0.2249,0.2249,0.2248,0.2269,0.227,0.2271,0,0,0,0,0,0,0,0,0,0,0,0,0,0.2341,0.234,0.2299,0.2298,0.2298,0.2282,0.2282,0.2281,0.225,0.2249,0.2249,0.2248,0.2269,0.227,0.2271,0,0,0,0,0,0,0,0,0,0,0,0,0,0.2322,0.234,0.2299,0.2282,0.228,0.2282,0.2282,0.2281,0.225,0.2249,0.2249,0.2248,0.2269,0.227,0.2272,0.2296,0,0,0.2276,0.2277,0,0,0,0,0,0,0,0,0.2323,0.232,0.2284,0.2283,0.2281,0.2268,0.2304,0.2288,0.225,0.226,0.2248,0.2248,0.2274,0.2275,0.2271,0.2297,0.2297,0.2276,0.2277,0.2278,0.2278,0,0,0,0,0,0,0,0.2324,0.2321,0.2291,0.2284,0.2282,0.2288,0.2284,0.2301,0.2271,0.2259,0.2257,0.2258,0.2273,0.227,0.2271,0.2298,0.2276,0.2278,0.2279,0.2279,0.2401,0.2404,0,0,0,0,0,0,0.2328,0.2322,0.2291,0.229,0.2302,0.2288,0.2283,0.2272,0.227,0.2269,0.2258,0.2256,0.2267,0.227,0.2272,0.2335,0.2278,0.2279,0.228,0.2399,0.2402,0.2405,0,0,0,0,0,0,0.2328,0.2325,0.2292,0.2308,0.2304,0.2288,0.2276,0.2272,0.2268,0.2269,0.2268,0.2258,0.2267,0.227,0.2293,0.2335,0.228,0.2281,0.2396,0.24,0.2403,0.244,0,0,0,0,0,0,0.2329,0.2325,0.2323,0.2307,0.2303,0.23,0.2276,0.2273,0.227,0.2267,0.2269,0.227,0.2267,0.2291,0.2295,0.2336,0.2283,0.2393,0.2398,0.2402,0.2436,0.2444,0.2451,0,0,0,0,0,0.2331,0.233,0.2322,0.2319,0.2298,0.2301,0.23,0.2285,0.2271,0.2277,0.2278,0.227,0.2323,0.2294,0.2298,0.234,0.2391,0.2397,0.2402,0.2432,0.2442,0.2451,0,0,0,0,0,0,0.2348,0.2326,0.2317,0.231,0.231,0.2296,0.2302,0.229,0.2293,0.2293,0.2285,0.2287,0.2335,0.2333,0.2301,0.2393,0.2362,0.2369,0.2384,0.2394,0.2402,0.2437,0.2284,0,0,0,0,0,0.2352,0.2343,0.2331,0.2328,0.2329,0.2317,0.2317,0.2309,0.2308,0.2307,0.2309,0.2326,0.2362,0.2369,0.2399,0.2432,0.2482,0.247,0.2477,0.2484,0.2518,0.2649,0.2672,0.2422,0.2422,0.2422,0,0,0.2356,0.2346,0.234,0.2332,0.233,0.2341,0.2315,0.2321,0.2337,0.2312,0.2339,0.2357,0.2381,0.2428,0.2449,0.2425,0.2573,0.249,0.2495,0.2527,0.2657,0.2681,0.2703,0.2425,0.2425,0.2424,0,0,0.2369,0.2356,0.2357,0.2361,0.2364,0.2362,0.2366,0.2361,0.2367,0.2389,0.2396,0.244,0.2459,0.2501,0.2521,0.2594,0.2619,0.2598,0.2654,0.2779,0.2801,0.2821,0.2876,0.2902,0.2591,0.2591,0.2591,0,0.2379,0.2371,0.2362,0.2372,0.2379,0.2374,0.2388,0.2402,0.2407,0.2436,0.2405,0.2501,0.2506,0.2603,0.2622,0.2615,0.2668,0.2606,0.279,0.2811,0.2832,0.2884,0.2911,0.2593,0.2593,0.2593,0.2593,0,0.2392,0.2393,0.24,0.2407,0.242,0.2432,0.2449,0.2474,0.2477,0.2499,0.2586,0.2605,0.2669,0.2676,0.2662,0.2811,0.2794,0.2791,0.2763,0.2859,0.2907,0.2935,0.2597,0.2596,0.2595,0.2595,0,0,0.2387,0.2403,0.2404,0.2418,0.2437,0.245,0.2498,0.2547,0.2606,0.2627,0.2718,0.2769,0.2796,0.2825,0.2834,0.2925,0.3078,0.2914,0.2919,0.2964,0.3323,0.3137,0.3148,0.3114,0.312,0.3124,0.3285,0,0.2398,0.2417,0.2426,0.2461,0.2473,0.25,0.2554,0.2608,0.2656,0.275,0.281,0.2899,0.285,0.2894,0.2982,0.3079,0.3161,0.3033,0.323,0.3235,0.3056,0.3179,0.2936,0.3045,0.3312,0.3316,0.332,0,0.2397,0.2413,0.2435,0.2493,0.2505,0.2535,0.2631,0.2682,0.2816,0.2865,0.2967,0.3022,0.3163,0.3108,0.332,0.3244,0.3294,0.3346,0.3353,0.3197,0.3103,0.3003,0.3086,0.298,0.3362,0.3359,0.3356,0,0.2379,0.2421,0.2438,0.2451,0.2516,0.2552,0.2602,0.2717,0.2808,0.2959,0.3057,0.3199,0.3307,0.3416,0.3482,0.3437,0.3707,0.3656,0.3531,0.3516,0.3358,0.3318,0.3361,0.3826,0.3826,0.3825,0.3825,0,0.2371,0.2389,0.2433,0.2442,0.2512,0.2555,0.267,0.2738,0.2901,0.3043,0.3126,0.3264,0.3404,0.3543,0.3574,0.3631,0.3783,0.358,0.3572,0.3353,0.3313,0.3249,0.3227,0.3831,0.383,0.3829,0.3828,0,0.2338,0.236,0.2393,0.2461,0.2497,0.2545,0.2709,0.2819,0.2944,0.314,0.3203,0.3391,0.3537,0.3623,0.381,0.3743,0.3674,0.3785,0.3471,0.3421,0.3128,0.3116,0.305,0.2973,0.3678,0.3675,0.3672,0,0.2318,0.2325,0.2399,0.2449,0.2481,0.258,0.2683,0.2826,0.2954,0.3205,0.3311,0.3495,0.3588,0.3737,0.3657,0.3658,0.359,0.3434,0.3292,0.3109,0.3096,0.296,0.2894,0.3097,0.309,0.3084,0.3079,0,0.2293,0.2314,0.2351,0.246,0.2553,0.2663,0.2804,0.2899,0.3089,0.3226,0.3397,0.3479,0.355,0.3417,0.3374,0.3344,0.3195,0.3305,0.325,0.2759,0.2493,0.2413,0.2957,0.3026,0.3032,0.3035,0.3038,0.304,0.2287,0.2317,0.2391,0.2487,0.2598,0.2713,0.277,0.2909,0.3052,0.317,0.3326,0.331,0.3209,0.3071,0.3027,0.2727,0.2813,0.2588,0.2626,0.2534,0.2338,0.2712,0.2676,0.2679,0.2681,0.2684,0.2686,0,0.2303,0.2351,0.2436,0.2545,0.2643,0.271,0.2843,0.2854,0.2923,0.2988,0.3044,0.2845,0.2651,0.2537,0.2231,0.2074,0.1975,0.2022,0.1829,0.1833,0.2289,0.2136,0.1816,0.1817,0.1817,0.1817,0.1817,0.1817,0.2325,0.2393,0.2432,0.2561,0.2635,0.2703,0.2733,0.2703,0.2692,0.2549,0.2387,0.2342,0.2229,0.1963,0.17,0.165,0.1539,0.1363,0.1498,0.1847,0.1903,0.1957,0.1808,0.1425,0.1425,0.0873,0.0869,0.0866]},{"header":{"parameterUnit":"m.s-1","parameterCategory":2,"la1":30.2991,"la2":30.254,"lo1":-89.0895,"lo2":-89.0444,"dy":0.0017,"dx":0.0017,"nx":28,"ny":28,"refTime":"2025-06-11T03:00:00:Z","depth":"0","parameterNumber":3,"parameterNumberName":"V-component_of_CURRENTS"},"data":[0,0,0,0,0,0,0,0,0,0,0,0,0,0,0,0,0,0,0,0,0,0,0,0,0,0,0,0,0,0,0,0,0,0,0,0,0,0,0,0,0,0,0,0,0,0,0,0,0,0,0,0,0,0,0,0,0,0,0.0241,0.0241,0,0.0225,0.0225,0.0225,0.0211,0.0211,0.0211,0.0211,0.0202,0.0202,0.0202,0,0,0,0,0,0,0,0,0,0,0,0,0,0.0243,0.0243,0.0241,0.0241,0.0241,0.0225,0.0225,0.0225,0.0212,0.0211,0.0211,0.0211,0.0202,0.0202,0.0202,0,0,0,0,0,0,0,0,0,0,0,0,0,0.0236,0.0243,0.0241,0.0233,0.0232,0.0226,0.0225,0.0225,0.0212,0.0211,0.0211,0.0211,0.0202,0.0202,0.0202,0.0204,0,0,0.0202,0.0201,0,0,0,0,0,0,0,0,0.0236,0.0236,0.0234,0.0233,0.0232,0.0221,0.0223,0.0218,0.0212,0.0219,0.0211,0.0211,0.021,0.0209,0.0205,0.0204,0.0203,0.0201,0.0201,0.0201,0.0201,0,0,0,0,0,0,0,0.0237,0.0236,0.0235,0.0234,0.0233,0.0224,0.0223,0.0222,0.0215,0.0218,0.0217,0.0216,0.0209,0.0206,0.0205,0.0203,0.0202,0.0201,0.0201,0.0201,0.0234,0.0235,0,0,0,0,0,0,0.0241,0.0237,0.0235,0.0234,0.0235,0.0224,0.0223,0.0224,0.0215,0.0213,0.0216,0.0216,0.0206,0.0205,0.0205,0.0235,0.0201,0.0201,0.0201,0.0233,0.0234,0.0235,0,0,0,0,0,0,0.0241,0.0241,0.0236,0.0235,0.0234,0.0224,0.0226,0.0224,0.0222,0.0214,0.0212,0.0216,0.0206,0.0205,0.0209,0.0233,0.0201,0.0201,0.0232,0.0233,0.0234,0.0277,0,0,0,0,0,0,0.0241,0.0241,0.0243,0.0236,0.0234,0.0237,0.0226,0.0224,0.0221,0.022,0.0213,0.0212,0.0206,0.021,0.0209,0.0233,0.0201,0.023,0.0232,0.0234,0.0274,0.028,0.0284,0,0,0,0,0,0.0241,0.0247,0.0244,0.0243,0.0238,0.0237,0.0236,0.0228,0.0222,0.0224,0.022,0.0212,0.0221,0.021,0.0209,0.0233,0.0229,0.0232,0.0234,0.0272,0.0279,0.0284,0,0,0,0,0,0,0.0247,0.0246,0.0242,0.0246,0.0244,0.0235,0.0238,0.023,0.0228,0.0229,0.0218,0.0217,0.0232,0.0225,0.0213,0.0249,0.0227,0.0229,0.0257,0.0263,0.0267,0.0292,0.0201,0,0,0,0,0,0.025,0.0255,0.025,0.0254,0.0255,0.0246,0.0245,0.024,0.0237,0.0235,0.023,0.0231,0.0241,0.0244,0.0247,0.0262,0.0273,0.0279,0.0284,0.0288,0.0308,0.0356,0.0368,0.0242,0.0242,0.0242,0,0,0.0252,0.0253,0.0255,0.0256,0.0254,0.0266,0.0245,0.0248,0.0261,0.0236,0.0251,0.0246,0.0248,0.0268,0.0275,0.0265,0.0324,0.0291,0.0295,0.0313,0.036,0.0372,0.0383,0.0244,0.0243,0.0243,0,0,0.0266,0.0262,0.0275,0.0278,0.028,0.0278,0.028,0.0275,0.0277,0.0286,0.028,0.0291,0.0292,0.0308,0.0314,0.0349,0.0348,0.0347,0.0394,0.044,0.0451,0.0461,0.0468,0.0478,0.0351,0.0351,0.0351,0,0.0269,0.0287,0.0277,0.0294,0.0304,0.0287,0.0308,0.0309,0.0306,0.0323,0.0298,0.033,0.0318,0.0369,0.0376,0.0363,0.0376,0.0369,0.0448,0.0458,0.0468,0.0472,0.0483,0.0353,0.0353,0.0353,0.0353,0,0.0298,0.0312,0.0321,0.034,0.0347,0.0362,0.0365,0.0375,0.0371,0.0378,0.0414,0.0402,0.0431,0.0422,0.0406,0.0473,0.0454,0.0447,0.0434,0.0483,0.0484,0.0495,0.0357,0.0356,0.0355,0.0355,0,0,0.0308,0.0337,0.034,0.0365,0.0377,0.039,0.0417,0.0448,0.0489,0.0477,0.054,0.0531,0.0532,0.054,0.0527,0.0554,0.0608,0.053,0.0531,0.0539,0.069,0.0634,0.064,0.0619,0.0622,0.0624,0.0654,0,0.0337,0.0382,0.0387,0.0434,0.0461,0.0464,0.0498,0.0523,0.0543,0.0599,0.0599,0.0648,0.0577,0.0605,0.0618,0.0635,0.0642,0.0599,0.064,0.064,0.0589,0.0654,0.0651,0.0675,0.0665,0.0666,0.0668,0,0.0368,0.0397,0.0447,0.0501,0.0514,0.0539,0.0608,0.0636,0.07,0.0724,0.0764,0.0775,0.0824,0.0755,0.0789,0.0768,0.073,0.0715,0.0716,0.0665,0.0607,0.063,0.0695,0.0658,0.0684,0.0683,0.0681,0,0.0394,0.0443,0.0489,0.0504,0.0556,0.0588,0.0619,0.0677,0.0739,0.0822,0.09,0.0923,0.099,0.0951,0.0903,0.0865,0.0935,0.088,0.078,0.0774,0.0781,0.0771,0.0823,0.0891,0.0891,0.0891,0.0891,0,0.0429,0.0466,0.0506,0.0534,0.0608,0.0625,0.0717,0.0755,0.0852,0.0975,0.0976,0.1097,0.1051,0.1079,0.0978,0.0927,0.0994,0.0811,0.0797,0.079,0.0781,0.0754,0.0715,0.0892,0.0892,0.0892,0.0892,0,0.0451,0.0474,0.0536,0.0597,0.0623,0.0676,0.0784,0.0866,0.0944,0.1117,0.1165,0.127,0.1316,0.1225,0.1196,0.1057,0.0952,0.0933,0.0905,0.0886,0.0723,0.0685,0.0713,0.0685,0.0835,0.0834,0.0833,0,0.0468,0.05,0.0581,0.0635,0.0666,0.0748,0.0826,0.0905,0.1018,0.1239,0.1353,0.1451,0.155,0.1457,0.1241,0.1055,0.0973,0.0898,0.081,0.0739,0.0688,0.0663,0.0636,0.0826,0.0825,0.0825,0.0824,0,0.0505,0.053,0.0585,0.0695,0.078,0.0883,0.1004,0.1107,0.1254,0.1427,0.1664,0.176,0.168,0.1535,0.1252,0.11,0.0868,0.0875,0.0846,0.0728,0.0668,0.0626,0.075,0.0819,0.0819,0.082,0.082,0.082,0.0534,0.0584,0.0663,0.0766,0.0872,0.1018,0.1129,0.1298,0.1507,0.1779,0.1856,0.2001,0.1763,0.1398,0.1213,0.0842,0.0833,0.0713,0.0683,0.0672,0.0625,0.0706,0.0727,0.0727,0.0727,0.0727,0.0727,0,0.0576,0.0638,0.0738,0.087,0.0994,0.1042,0.1257,0.1401,0.1674,0.1885,0.208,0.1985,0.1721,0.139,0.0902,0.0695,0.0621,0.0594,0.0587,0.0574,0.0699,0.0676,0.0638,0.0638,0.0638,0.0638,0.0638,0.0638,0.0605,0.0698,0.0749,0.0945,0.1049,0.1241,0.1371,0.1606,0.1784,0.2022,0.2058,0.2066,0.1811,0.1132,0.072,0.0616,0.0521,0.0463,0.0427,0.0532,0.0542,0.0552,0.0525,0.0455,0.0454,0.033,0.0329,0.0328]}],[{"header":{"parameterUnit":"m.s-1","parameterCategory":2,"la1":30.2991,"la2":30.254,"lo1":-89.0895,"lo2":-89.0444,"dy":0.0017,"dx":0.0017,"nx":28,"ny":28,"refTime":"2025-06-11T03:00:00:Z","depth":"2","parameterNumber":2,"parameterNumberName":"U-component_of_CURRENTS"},"data":[0,0,0,0,0,0,0,0,0,0,0,0,0,0,0,0,0,0,0,0,0,0,0,0,0,0,0,0,0,0,0,0,0,0,0,0,0,0,0,0,0,0,0,0,0,0,0,0,0,0,0,0,0,0,0,0,0,0,0.2112,0.2112,0,0.2098,0.2098,0.2097,0.2079,0.2079,0.2079,0.2079,0.2099,0.21,0.2101,0,0,0,0,0,0,0,0,0,0,0,0,0,0.2144,0.2144,0.2112,0.2112,0.2112,0.2098,0.2098,0.2097,0.2079,0.2079,0.2079,0.2079,0.2099,0.21,0.2101,0,0,0,0,0,0,0,0,0,0,0,0,0,0.2129,0.2143,0.2112,0.2102,0.2101,0.2098,0.2098,0.2097,0.2079,0.2079,0.2079,0.2079,0.2099,0.21,0.2101,0.2112,0,0,0.2104,0.2105,0,0,0,0,0,0,0,0,0.213,0.2127,0.2104,0.2103,0.2102,0.2091,0.2117,0.2104,0.2079,0.2086,0.2079,0.2078,0.2101,0.2102,0.2097,0.2112,0.2113,0.2104,0.2105,0.2105,0.2106,0,0,0,0,0,0,0,0.2131,0.2128,0.2104,0.2104,0.2103,0.2106,0.2103,0.2114,0.2094,0.2085,0.2084,0.2086,0.2101,0.2096,0.2098,0.2114,0.2104,0.2105,0.2106,0.2106,0.2192,0.2194,0,0,0,0,0,0,0.2135,0.2129,0.2105,0.2104,0.2117,0.2106,0.2103,0.2094,0.2093,0.2093,0.2086,0.2085,0.2094,0.2096,0.2098,0.2162,0.2105,0.2106,0.2107,0.219,0.2192,0.2194,0,0,0,0,0,0,0.2135,0.2132,0.2106,0.2118,0.2115,0.2106,0.2096,0.2094,0.2097,0.2094,0.2094,0.2092,0.2094,0.2097,0.2117,0.2161,0.2107,0.2108,0.2189,0.2191,0.2193,0.2257,0,0,0,0,0,0,0.2136,0.2132,0.2133,0.2118,0.2115,0.2114,0.2096,0.2093,0.2098,0.2097,0.2099,0.21,0.2094,0.2115,0.2118,0.2161,0.2108,0.2186,0.219,0.2193,0.2253,0.2262,0.2269,0,0,0,0,0,0.2137,0.2137,0.2133,0.2131,0.2114,0.2115,0.2113,0.2105,0.2099,0.2105,0.2106,0.2101,0.2138,0.2117,0.212,0.2165,0.2185,0.2189,0.2192,0.2249,0.226,0.2269,0,0,0,0,0,0,0.2153,0.2135,0.213,0.2125,0.2126,0.2112,0.212,0.2113,0.2117,0.212,0.2112,0.2114,0.2155,0.2147,0.2124,0.22,0.2165,0.2169,0.2207,0.2217,0.2225,0.2239,0.2109,0,0,0,0,0,0.2157,0.2151,0.2141,0.214,0.2142,0.2134,0.2135,0.2131,0.213,0.2131,0.2134,0.2146,0.2172,0.2182,0.2198,0.223,0.2258,0.2264,0.2272,0.2278,0.2292,0.2391,0.241,0.2207,0.2207,0.2207,0,0,0.2162,0.2154,0.215,0.2144,0.2144,0.2152,0.2134,0.2142,0.2158,0.2135,0.2161,0.2175,0.2187,0.2228,0.2247,0.2226,0.2348,0.2283,0.2289,0.2299,0.2397,0.2417,0.2435,0.2209,0.2209,0.2208,0,0,0.2173,0.2166,0.2167,0.2169,0.2175,0.2175,0.2181,0.2178,0.2187,0.2207,0.2211,0.2245,0.2264,0.2291,0.2305,0.2366,0.239,0.2379,0.2428,0.2524,0.2542,0.2558,0.2604,0.2624,0.238,0.238,0.238,0,0.2184,0.2177,0.2171,0.2178,0.2186,0.2187,0.22,0.2213,0.222,0.224,0.2225,0.2297,0.2297,0.2373,0.2392,0.2386,0.2434,0.2389,0.2537,0.2553,0.2569,0.2612,0.2634,0.2383,0.2383,0.2383,0.2382,0,0.2191,0.2194,0.22,0.2207,0.222,0.2231,0.2248,0.2272,0.2283,0.2296,0.2369,0.2384,0.2428,0.2442,0.2431,0.2549,0.2545,0.254,0.2514,0.2594,0.2633,0.2654,0.2388,0.2387,0.2386,0.2385,0,0,0.219,0.2201,0.2204,0.2215,0.2235,0.2247,0.2289,0.2327,0.237,0.2397,0.2467,0.251,0.2532,0.2551,0.2566,0.2641,0.2771,0.2642,0.2645,0.2689,0.2973,0.2796,0.2801,0.2812,0.2817,0.282,0.295,0,0.2199,0.2212,0.2221,0.2251,0.2261,0.2288,0.233,0.2372,0.2411,0.2482,0.2533,0.2603,0.2573,0.2617,0.2689,0.2763,0.2834,0.2735,0.2887,0.289,0.2727,0.2822,0.2556,0.2636,0.297,0.2974,0.2976,0,0.2195,0.2208,0.2228,0.2274,0.2285,0.2315,0.2391,0.2434,0.2531,0.2567,0.265,0.2693,0.2807,0.2775,0.2944,0.2893,0.2939,0.2984,0.299,0.282,0.2753,0.2614,0.2661,0.3011,0.3008,0.3006,0.3003,0,0.218,0.2214,0.2233,0.2243,0.2296,0.2331,0.2379,0.2461,0.251,0.2646,0.2719,0.2828,0.2918,0.3012,0.3069,0.3041,0.3251,0.3216,0.3098,0.3084,0.288,0.284,0.3349,0.3349,0.3348,0.3348,0.3348,0,0.2169,0.2187,0.2231,0.2238,0.2295,0.2339,0.2429,0.2482,0.2585,0.2685,0.278,0.288,0.2995,0.3105,0.314,0.3174,0.3308,0.3127,0.3122,0.2888,0.2849,0.3188,0.3168,0.3353,0.3352,0.3351,0.335,0,0.2139,0.2161,0.2189,0.2252,0.2282,0.2328,0.2441,0.2506,0.2618,0.2764,0.282,0.2954,0.309,0.3168,0.3315,0.3249,0.3304,0.3281,0.2963,0.2915,0.3054,0.3036,0.3169,0.3164,0.316,0.3156,0.3153,0,0.212,0.2128,0.2194,0.2219,0.225,0.2337,0.2403,0.2507,0.257,0.2806,0.2863,0.3033,0.3089,0.3192,0.3134,0.3138,0.3258,0.2883,0.2753,0.3062,0.3045,0.3032,0.302,0.2518,0.251,0.2504,0.2498,0,0.2094,0.2117,0.2141,0.2201,0.2263,0.2348,0.2442,0.2468,0.2634,0.2735,0.2856,0.2916,0.2996,0.2827,0.2804,0.2776,0.2846,0.2745,0.3225,0.257,0.2449,0.2431,0.2441,0.2441,0.2447,0.2451,0.2454,0.2457,0.2079,0.209,0.2132,0.2188,0.2261,0.2333,0.2366,0.2423,0.249,0.2558,0.2698,0.2683,0.2656,0.2435,0.2351,0.229,0.2491,0.2371,0.2392,0.242,0.2287,0.2162,0.2075,0.2078,0.2081,0.2084,0.2086,0,0.207,0.2095,0.2123,0.2175,0.221,0.2305,0.2375,0.2333,0.2328,0.2368,0.2379,0.2126,0.1968,0.1989,0.1775,0.1718,0.1719,0.1662,0.1657,0.1714,0.1765,0.16,0.1205,0.1202,0.12,0.1197,0,0,0.2063,0.2073,0.2081,0.2117,0.2164,0.2227,0.2249,0.2128,0.2085,0.1926,0.185,0.1907,0.1937,0.1564,0.1479,0.132,0.1522,0.126,0.1969,0.2026,0.2074,0.2173,0.1981,0,0,0,0,0]},{"header":{"parameterUnit":"m.s-1","parameterCategory":2,"la1":30.2991,"la2":30.254,"lo1":-89.0895,"lo2":-89.0444,"dy":0.0017,"dx":0.0017,"nx":28,"ny":28,"refTime":"2025-06-11T03:00:00:Z","depth":"2","parameterNumber":3,"parameterNumberName":"V-component_of_CURRENTS"},"data":[0,0,0,0,0,0,0,0,0,0,0,0,0,0,0,0,0,0,0,0,0,0,0,0,0,0,0,0,0,0,0,0,0,0,0,0,0,0,0,0,0,0,0,0,0,0,0,0,0,0,0,0,0,0,0,0,0,0,0.0104,0.0104,0,0.0089,0.0088,0.0088,0.0079,0.0079,0.0079,0.0079,0.0068,0.0067,0.0067,0,0,0,0,0,0,0,0,0,0,0,0,0,0.0106,0.0106,0.0104,0.0104,0.0104,0.0089,0.0088,0.0088,0.0079,0.0079,0.0079,0.0079,0.0068,0.0067,0.0067,0,0,0,0,0,0,0,0,0,0,0,0,0,0.0099,0.0106,0.0104,0.0098,0.0097,0.0089,0.0088,0.0088,0.0079,0.0079,0.0079,0.0079,0.0068,0.0068,0.0067,0.0064,0,0,0.0066,0.0066,0,0,0,0,0,0,0,0,0.01,0.0099,0.0099,0.0098,0.0097,0.0086,0.0085,0.008,0.0079,0.0085,0.0079,0.0079,0.0075,0.0074,0.007,0.0064,0.0063,0.0066,0.0065,0.0065,0.0065,0,0,0,0,0,0,0,0.01,0.01,0.0098,0.0099,0.0098,0.0089,0.0088,0.0084,0.008,0.0085,0.0084,0.0083,0.0074,0.007,0.007,0.0063,0.0066,0.0065,0.0065,0.0065,0.008,0.0081,0,0,0,0,0,0,0.0104,0.01,0.0098,0.0097,0.0099,0.0089,0.0088,0.0089,0.008,0.0078,0.0083,0.0083,0.0071,0.007,0.0069,0.0096,0.0065,0.0065,0.0065,0.0079,0.008,0.0081,0,0,0,0,0,0,0.0104,0.0104,0.0099,0.0098,0.0097,0.0089,0.0091,0.0089,0.0089,0.0079,0.0077,0.0085,0.0071,0.007,0.0072,0.0094,0.0065,0.0064,0.0078,0.008,0.008,0.013,0,0,0,0,0,0,0.0104,0.0104,0.0107,0.0099,0.0097,0.0099,0.0091,0.0089,0.0088,0.0087,0.0079,0.0078,0.0071,0.0073,0.0072,0.0093,0.0064,0.0078,0.0079,0.008,0.0127,0.0132,0.0137,0,0,0,0,0,0.0105,0.0109,0.0107,0.0107,0.0101,0.0099,0.0098,0.0091,0.0088,0.009,0.0087,0.0079,0.008,0.0073,0.0071,0.0093,0.0077,0.0079,0.008,0.0125,0.0131,0.0137,0,0,0,0,0,0,0.0109,0.0108,0.0106,0.0109,0.0107,0.0098,0.01,0.0094,0.0092,0.0094,0.0083,0.0082,0.0092,0.0084,0.0076,0.0101,0.0079,0.008,0.0114,0.012,0.0124,0.0134,0.0063,0,0,0,0,0,0.0112,0.0117,0.0112,0.0115,0.0116,0.0109,0.0107,0.0104,0.01,0.0099,0.0094,0.0092,0.0097,0.01,0.0097,0.0109,0.0104,0.0123,0.0128,0.0132,0.0139,0.0157,0.0164,0.0086,0.0086,0.0086,0,0,0.0113,0.0114,0.0116,0.0117,0.0115,0.0125,0.0108,0.011,0.0122,0.0099,0.0113,0.0105,0.0102,0.0117,0.0122,0.0114,0.0149,0.0134,0.0137,0.0143,0.0159,0.0167,0.0174,0.0087,0.0087,0.0086,0,0,0.0124,0.0122,0.0133,0.0135,0.0137,0.0136,0.0138,0.0134,0.0137,0.0144,0.0137,0.0141,0.0141,0.0149,0.0152,0.0179,0.0169,0.0181,0.0219,0.0236,0.0243,0.0249,0.0242,0.0247,0.0188,0.0188,0.0188,0,0.0127,0.0142,0.0134,0.0148,0.0158,0.0145,0.0163,0.0164,0.0161,0.0173,0.0155,0.017,0.0159,0.0194,0.0201,0.0191,0.0193,0.0199,0.0243,0.0249,0.0254,0.0246,0.0251,0.0191,0.019,0.019,0.019,0,0.015,0.0163,0.0171,0.0189,0.0195,0.0208,0.0211,0.022,0.0218,0.0221,0.0244,0.0229,0.0244,0.024,0.0227,0.0267,0.0252,0.0244,0.0231,0.0266,0.0254,0.0258,0.0194,0.0193,0.0193,0.0192,0,0,0.0159,0.0184,0.0188,0.021,0.0221,0.0233,0.0257,0.028,0.031,0.0298,0.034,0.033,0.0324,0.0327,0.0316,0.0324,0.0349,0.0304,0.0304,0.03,0.0377,0.0338,0.0338,0.0356,0.0358,0.0359,0.035,0,0.0184,0.0223,0.0228,0.027,0.0294,0.0298,0.0326,0.0345,0.0355,0.0389,0.0381,0.041,0.0359,0.0378,0.0376,0.0369,0.0365,0.0351,0.0341,0.034,0.0305,0.0344,0.036,0.0352,0.0354,0.0354,0.0355,0,0.0211,0.0237,0.0281,0.0329,0.0341,0.0364,0.0418,0.0443,0.0479,0.0492,0.051,0.0505,0.0525,0.0474,0.0465,0.0464,0.0421,0.0396,0.0396,0.0347,0.031,0.032,0.0359,0.0362,0.0361,0.0361,0.036,0,0.0235,0.0278,0.032,0.0334,0.0379,0.0408,0.0437,0.0475,0.0515,0.0568,0.0619,0.0611,0.0645,0.0594,0.0534,0.0511,0.0517,0.048,0.0394,0.039,0.0395,0.0389,0.046,0.046,0.046,0.0461,0.0461,0,0.0265,0.03,0.0336,0.0361,0.0425,0.0444,0.0518,0.0547,0.0604,0.0696,0.0683,0.0762,0.0681,0.0673,0.0582,0.0511,0.0554,0.0409,0.0395,0.041,0.0406,0.0406,0.04,0.046,0.046,0.046,0.046,0,0.0286,0.0306,0.0362,0.0416,0.0438,0.0488,0.0569,0.0621,0.0685,0.0812,0.0844,0.0884,0.0889,0.0782,0.0712,0.0595,0.0514,0.0468,0.0475,0.0461,0.0354,0.0351,0.0372,0.0371,0.037,0.0369,0.0368,0,0.03,0.0329,0.0401,0.044,0.0468,0.0541,0.0592,0.0652,0.0725,0.0911,0.0983,0.1025,0.1067,0.0924,0.0739,0.0561,0.0531,0.0435,0.0381,0.0366,0.035,0.0348,0.0346,0.0403,0.0403,0.0402,0.0402,0,0.0332,0.0356,0.0402,0.0483,0.0542,0.0619,0.0709,0.0781,0.0906,0.1048,0.1229,0.1277,0.1156,0.0992,0.0722,0.0597,0.0459,0.042,0.0445,0.0413,0.0392,0.0377,0.0375,0.0399,0.04,0.04,0.04,0.04,0.0355,0.0395,0.0457,0.0537,0.0603,0.0707,0.0798,0.0932,0.11,0.1321,0.1354,0.143,0.1221,0.0874,0.0667,0.0439,0.0449,0.0342,0.0345,0.0348,0.0344,0.0322,0.0313,0.0313,0.0313,0.0313,0.0313,0,0.0392,0.044,0.0508,0.0607,0.0685,0.072,0.088,0.1006,0.1253,0.1391,0.1527,0.1328,0.1134,0.0894,0.0562,0.0348,0.0333,0.0269,0.0306,0.0311,0.0315,0.031,0.027,0.0269,0.0268,0.0267,0,0,0.0411,0.0481,0.0519,0.0659,0.0731,0.0867,0.0973,0.1194,0.1329,0.1488,0.1506,0.1459,0.1183,0.0917,0.0654,0.0472,0.0431,0.0421,0.0481,0.0563,0.0569,0.0386,0.0387,0,0,0,0,0]}],[{"header":{"parameterUnit":"m.s-1","parameterCategory":2,"la1":30.2991,"la2":30.254,"lo1":-89.0895,"lo2":-89.0444,"dy":0.0017,"dx":0.0017,"nx":28,"ny":28,"refTime":"2025-06-11T03:00:00:Z","depth":"4","parameterNumber":2,"parameterNumberName":"U-component_of_CURRENTS"},"data":[0,0,0,0,0,0,0,0,0,0,0,0,0,0,0,0,0,0,0,0,0,0,0,0,0,0,0,0,0,0,0,0,0,0,0,0,0,0,0,0,0,0,0,0,0,0,0,0,0,0,0,0,0,0,0,0,0,0,0.1322,0.1322,0,0.1334,0.1334,0.1334,0.136,0.1361,0.1361,0.1362,0.1375,0.1375,0.1374,0,0,0,0,0,0,0,0,0,0,0,0,0,0.1312,0.1312,0.1322,0.1322,0.1323,0.1334,0.1334,0.1334,0.136,0.1361,0.1362,0.1362,0.1375,0.1375,0.1374,0,0,0,0,0,0,0,0,0,0,0,0,0,0.1317,0.1312,0.1322,0.1339,0.1341,0.1334,0.1334,0.1334,0.136,0.1361,0.1362,0.1363,0.1375,0.1375,0.1374,0.1349,0,0,0.1373,0.1373,0,0,0,0,0,0,0,0,0.1317,0.1317,0.1336,0.1338,0.134,0.1349,0.1335,0.1339,0.1359,0.135,0.1362,0.1363,0.1367,0.1367,0.1364,0.1349,0.135,0.1373,0.1372,0.1372,0.1372,0,0,0,0,0,0,0,0.1317,0.1317,0.1324,0.1336,0.1339,0.1343,0.1344,0.1336,0.135,0.1351,0.1353,0.1358,0.1368,0.1364,0.1364,0.135,0.1373,0.1372,0.1372,0.1372,0.142,0.1422,0,0,0,0,0,0,0.1319,0.1316,0.1324,0.1325,0.1333,0.1342,0.1344,0.1343,0.135,0.1353,0.1357,0.1359,0.1364,0.1365,0.1365,0.1422,0.1372,0.1372,0.1371,0.1419,0.1421,0.1422,0,0,0,0,0,0,0.1319,0.1319,0.1324,0.1323,0.1324,0.1341,0.1339,0.1342,0.1369,0.1355,0.1358,0.1385,0.1365,0.1366,0.1389,0.142,0.1371,0.1371,0.1417,0.1419,0.1421,0.1481,0,0,0,0,0,0,0.1318,0.1319,0.1333,0.1323,0.1325,0.1338,0.1339,0.1342,0.1369,0.1373,0.1379,0.138,0.1366,0.139,0.1388,0.1418,0.1371,0.1415,0.1418,0.1421,0.1477,0.1485,0.1492,0,0,0,0,0,0.1317,0.1325,0.1333,0.1335,0.1339,0.1339,0.1341,0.1354,0.137,0.1383,0.1395,0.1381,0.1408,0.139,0.1388,0.1419,0.1413,0.1417,0.142,0.1474,0.1483,0.1492,0,0,0,0,0,0,0.133,0.1328,0.1337,0.1346,0.1354,0.1345,0.1363,0.1371,0.1389,0.1405,0.1393,0.1395,0.143,0.1416,0.1397,0.1444,0.1412,0.1415,0.1453,0.1462,0.1469,0.1469,0.137,0,0,0,0,0,0.1338,0.1347,0.1345,0.1358,0.1364,0.1371,0.138,0.1389,0.1397,0.1408,0.1414,0.1425,0.1437,0.1444,0.1449,0.1466,0.1466,0.1488,0.1496,0.1502,0.1502,0.1553,0.1565,0.1434,0.1434,0.1434,0,0,0.1347,0.135,0.1356,0.1362,0.1371,0.1378,0.1379,0.1401,0.1416,0.1404,0.144,0.1452,0.1449,0.1476,0.149,0.1471,0.1537,0.1507,0.1512,0.1509,0.1558,0.1571,0.1582,0.1437,0.1436,0.1436,0,0,0.1358,0.1373,0.1381,0.1389,0.1408,0.1407,0.1421,0.1432,0.1452,0.1478,0.1484,0.1514,0.1525,0.1532,0.1534,0.1584,0.1579,0.1598,0.1631,0.168,0.1691,0.1701,0.1705,0.1715,0.1598,0.1598,0.1598,0,0.1375,0.1377,0.1386,0.1395,0.1405,0.1424,0.1433,0.1451,0.1472,0.1492,0.1501,0.1546,0.1548,0.1578,0.1605,0.16,0.162,0.1594,0.169,0.17,0.1709,0.1711,0.1721,0.1601,0.1601,0.1601,0.16,0,0.1377,0.1394,0.1402,0.1416,0.1429,0.1443,0.1461,0.149,0.152,0.1537,0.1591,0.1602,0.1626,0.1642,0.164,0.1706,0.1696,0.1697,0.1666,0.1726,0.1723,0.1733,0.1606,0.1605,0.1604,0.1603,0,0,0.1373,0.1398,0.1405,0.141,0.1441,0.1441,0.1483,0.1511,0.1539,0.1586,0.1625,0.1666,0.169,0.1695,0.1706,0.1752,0.1831,0.1763,0.1765,0.1763,0.1926,0.1793,0.179,0.1867,0.187,0.1872,0.1894,0,0.1375,0.1388,0.1403,0.1419,0.1424,0.1456,0.1486,0.1523,0.1562,0.1608,0.1653,0.1699,0.1705,0.1734,0.1783,0.1832,0.1862,0.1823,0.1871,0.1871,0.1744,0.1798,0.1879,0.1901,0.1903,0.1904,0.1905,0,0.1363,0.1374,0.1391,0.1412,0.1419,0.1438,0.1481,0.1512,0.1586,0.1626,0.1686,0.1726,0.1805,0.1803,0.1902,0.1889,0.1911,0.1937,0.1938,0.1798,0.1756,0.1832,0.1922,0.192,0.1919,0.1918,0.1917,0,0.1331,0.1358,0.1369,0.1378,0.1413,0.1435,0.1462,0.1525,0.1553,0.1651,0.1696,0.1779,0.1843,0.1902,0.1958,0.1954,0.2055,0.2045,0.1928,0.1918,0.2003,0.1993,0.21,0.21,0.21,0.21,0.21,0,0.1303,0.1314,0.1358,0.1361,0.1371,0.1417,0.1439,0.1489,0.1567,0.16,0.171,0.1753,0.1887,0.1953,0.198,0.1979,0.207,0.1936,0.1924,0.2025,0.2017,0.2009,0.1998,0.2101,0.2101,0.21,0.21,0,0.126,0.1293,0.1299,0.1343,0.1353,0.1364,0.1407,0.1412,0.153,0.1582,0.1627,0.1774,0.187,0.1949,0.2047,0.1995,0.201,0.1976,0.2061,0.2053,0.1827,0.182,0.1847,0.1842,0.1839,0.1836,0.1833,0,0.1232,0.1238,0.1272,0.1257,0.1275,0.1293,0.1286,0.1378,0.1386,0.1564,0.1574,0.1733,0.1808,0.1839,0.1934,0.1958,0.1938,0.1913,0.1882,0.182,0.1807,0.1805,0.1802,0.1827,0.1826,0.1825,0.1825,0,0.1175,0.1204,0.1205,0.1184,0.1169,0.1133,0.1149,0.1158,0.1269,0.1399,0.1497,0.1577,0.1677,0.1761,0.1797,0.1807,0.1918,0.1874,0.1881,0.1853,0.1797,0.1787,0.1788,0.1812,0.1814,0.1815,0.1816,0,0.1132,0.1113,0.1117,0.1077,0.1051,0.0978,0.0999,0.1018,0.1062,0.1282,0.1307,0.1495,0.165,0.1681,0.1707,0.172,0.1696,0.1632,0.1651,0.1666,0.1599,0.1502,0.1419,0,0,0,0,0,0.1083,0.1036,0.0994,0.092,0.0889,0.0871,0.0896,0.093,0.1064,0.1089,0.1203,0.1292,0.1402,0.1496,0.1475,0.1604,0.1678,0.1567,0.1607,0.1742,0.1756,0.1696,0,0,0,0,0,0,0.1036,0.1012,0.0962,0.0798,0.0725,0.066,0.0678,0.0764,0.079,0.0971,0.1043,0.119,0.1313,0.1403,0.1446,0.1469,0.1459,0.1679,0.1675,0.1733,0.1747,0.1758,0.1702,0,0,0,0,0]},{"header":{"parameterUnit":"m.s-1","parameterCategory":2,"la1":30.2991,"la2":30.254,"lo1":-89.0895,"lo2":-89.0444,"dy":0.0017,"dx":0.0017,"nx":28,"ny":28,"refTime":"2025-06-11T03:00:00:Z","depth":"4","parameterNumber":3,"parameterNumberName":"V-component_of_CURRENTS"},"data":[0,0,0,0,0,0,0,0,0,0,0,0,0,0,0,0,0,0,0,0,0,0,0,0,0,0,0,0,0,0,0,0,0,0,0,0,0,0,0,0,0,0,0,0,0,0,0,0,0,0,0,0,0,0,0,0,0,0,0.004,0.004,0,0.0031,0.0031,0.0031,0.0025,0.0025,0.0025,0.0025,0.0024,0.0024,0.0024,0,0,0,0,0,0,0,0,0,0,0,0,0,0.004,0.004,0.004,0.004,0.004,0.0031,0.0031,0.0031,0.0026,0.0025,0.0025,0.0025,0.0024,0.0024,0.0024,0,0,0,0,0,0,0,0,0,0,0,0,0,0.0037,0.004,0.004,0.0036,0.0036,0.0032,0.0031,0.0031,0.0026,0.0025,0.0025,0.0025,0.0024,0.0024,0.0024,0.0024,0,0,0.0024,0.0024,0,0,0,0,0,0,0,0,0.0037,0.0037,0.0037,0.0036,0.0036,0.003,0.0031,0.0029,0.0026,0.0029,0.0025,0.0025,0.0027,0.0026,0.0024,0.0024,0.0024,0.0024,0.0024,0.0024,0.0024,0,0,0,0,0,0,0,0.0037,0.0037,0.0037,0.0037,0.0036,0.0031,0.003,0.003,0.0028,0.0029,0.0029,0.0028,0.0026,0.0024,0.0024,0.0024,0.0024,0.0024,0.0024,0.0024,0.0041,0.0041,0,0,0,0,0,0,0.0039,0.0037,0.0037,0.0036,0.0036,0.0031,0.003,0.0032,0.0028,0.0028,0.0028,0.0028,0.0025,0.0024,0.0024,0.0045,0.0024,0.0024,0.0024,0.004,0.0041,0.0041,0,0,0,0,0,0,0.0039,0.0039,0.0037,0.0036,0.0036,0.0031,0.0032,0.0031,0.0031,0.0027,0.0027,0.0029,0.0025,0.0024,0.0029,0.0044,0.0024,0.0024,0.004,0.004,0.0041,0.0073,0,0,0,0,0,0,0.0039,0.0039,0.0041,0.0037,0.0036,0.0038,0.0032,0.0031,0.0031,0.0031,0.0028,0.0028,0.0024,0.0029,0.0029,0.0043,0.0024,0.0039,0.004,0.0041,0.0071,0.0074,0.0077,0,0,0,0,0,0.0039,0.0042,0.0041,0.0041,0.0039,0.0038,0.0037,0.0033,0.0031,0.0033,0.0032,0.0028,0.0034,0.0029,0.0029,0.0044,0.0039,0.004,0.0041,0.007,0.0074,0.0077,0,0,0,0,0,0,0.0041,0.0042,0.0041,0.0043,0.0042,0.0037,0.0038,0.0035,0.0036,0.0037,0.0032,0.0032,0.0041,0.0037,0.0031,0.0051,0.0037,0.0038,0.0059,0.0062,0.0065,0.0069,0.0024,0,0,0,0,0,0.0043,0.0047,0.0045,0.0047,0.0048,0.0044,0.0043,0.0041,0.004,0.004,0.0039,0.004,0.0044,0.0049,0.0048,0.0059,0.0043,0.0069,0.0072,0.0075,0.0077,0.0068,0.0071,0.0045,0.0045,0.0045,0,0,0.0043,0.0045,0.0046,0.0048,0.0047,0.0055,0.0043,0.0045,0.0055,0.004,0.0053,0.0048,0.0048,0.0061,0.0065,0.006,0.0072,0.0076,0.0078,0.008,0.007,0.0072,0.0074,0.0045,0.0045,0.0045,0,0,0.005,0.0049,0.0056,0.0059,0.0061,0.0062,0.0063,0.0062,0.0065,0.0072,0.0068,0.0072,0.0076,0.0082,0.0086,0.0105,0.0085,0.0106,0.013,0.0121,0.0123,0.0125,0.0098,0.0097,0.0112,0.0112,0.0112,0,0.0051,0.0062,0.0057,0.0068,0.0077,0.0067,0.0082,0.0083,0.0084,0.0095,0.008,0.0093,0.0088,0.0113,0.0117,0.0113,0.0097,0.0117,0.0125,0.0126,0.0128,0.01,0.0098,0.0114,0.0114,0.0113,0.0113,0,0.0066,0.0076,0.0081,0.0096,0.0103,0.0112,0.0117,0.0126,0.0126,0.013,0.0146,0.0133,0.0144,0.0143,0.0135,0.0149,0.013,0.0126,0.0116,0.0132,0.0102,0.0099,0.0116,0.0116,0.0115,0.0115,0,0,0.007,0.0089,0.0092,0.011,0.0121,0.0132,0.0152,0.0174,0.02,0.0188,0.0215,0.021,0.0199,0.0202,0.0192,0.0182,0.0167,0.0158,0.0157,0.0131,0.0133,0.0128,0.0124,0.0165,0.0165,0.0165,0.0105,0,0.0086,0.0114,0.0121,0.0154,0.0172,0.0181,0.0208,0.0227,0.0235,0.0257,0.0245,0.0263,0.0225,0.0233,0.0214,0.0186,0.0165,0.0183,0.0121,0.0119,0.0113,0.0123,0.0165,0.0103,0.0102,0.0102,0.0102,0,0.0103,0.0123,0.0156,0.02,0.0211,0.0232,0.0281,0.0304,0.0331,0.0339,0.0341,0.0329,0.0318,0.0281,0.0224,0.0236,0.0184,0.015,0.0147,0.0132,0.0111,0.0085,0.0097,0.0098,0.0098,0.0098,0.0099,0,0.0116,0.0152,0.0183,0.0195,0.0238,0.0266,0.0295,0.0331,0.0373,0.0392,0.0418,0.039,0.0387,0.032,0.0235,0.0234,0.016,0.0153,0.0094,0.0092,0.0099,0.0098,0.0105,0.0105,0.0106,0.0106,0.0106,0,0.0134,0.0161,0.0194,0.0213,0.0272,0.0292,0.0362,0.0385,0.0436,0.0491,0.0461,0.0483,0.0397,0.0343,0.0254,0.0163,0.017,0.0097,0.0082,0.0112,0.0113,0.0096,0.0096,0.0103,0.0104,0.0104,0.0105,0,0.0142,0.016,0.0203,0.0254,0.0278,0.0321,0.0414,0.0473,0.0503,0.057,0.0582,0.0559,0.049,0.0387,0.0278,0.0201,0.0108,0.007,0.0097,0.0083,0.0038,0.0041,0.0011,0.001,0.001,0.0009,0.0009,0,0.0149,0.0169,0.0232,0.0274,0.0301,0.0375,0.0443,0.0503,0.0566,0.0614,0.065,0.0606,0.057,0.0408,0.029,0.0122,0.0095,0.0037,0.0047,0.0044,0.0031,0.0034,0.0037,0.0008,0.0008,0.0008,0.0008,0,0.0163,0.0183,0.0221,0.0306,0.0378,0.0472,0.0563,0.061,0.0681,0.0703,0.0711,0.0635,0.0556,0.0419,0.0285,0.0163,0.0074,0.0032,0.0032,0.0041,0.0041,0.0029,0.0032,0.0006,0.0007,0.0007,0.0007,0,0.0176,0.0207,0.0263,0.0344,0.0438,0.0547,0.0591,0.0668,0.0727,0.0763,0.0755,0.0666,0.0611,0.0439,0.0315,0.0197,0.0171,0.0125,0.012,0.012,0.0169,0.0185,0.0185,0,0,0,0,0,0.0191,0.0237,0.0307,0.0405,0.0502,0.0567,0.0672,0.0712,0.0759,0.0773,0.0768,0.0691,0.0526,0.0455,0.0339,0.0303,0.0145,0.0161,0.0089,-0.0003,-0.0001,0.0037,0,0,0,0,0,0,0.0206,0.0264,0.0306,0.0446,0.0524,0.0649,0.0717,0.0751,0.0759,0.0769,0.0684,0.0649,0.0488,0.0589,0.0331,0.0297,0.0232,0.0087,0.0084,-0.0004,-0.0002,-0.0,0.0039,0,0,0,0,0]}]]